DECAYED

STARLINK-2095, 47679 (Decayed)

Orbit data source: Space-Track

STARLINK-2095, 47679 was a payload satellite owned by SpaceX/Seattle (US) in LEO that was launched on Tue, 16 Feb 2021 UTC via an FALCON 9 launch vehicle from the Air Force Eastern Test Range (AFETR). Payload-class satellites include a variety of spacecraft equipped with specific instruments for various scientific and technological missions. These include communications satellites like Starlink; space stations such as the ISS; scientific satellites like the Hubble; Earth observation satellites from companies like Planet Labs, Umbra, and HawkEye 360; GPS; miniature CubeSats for education and research; and military/defense satellites.

Not visible in the next 10 days
Identifier
47679, 2021-012BM
Orbit
Decayed
Country
Flag of USUS
Related business
Manufacturer
SpaceX/Seattle
Mission
Decayed Commercial Communications
Bus & Motor
STARLINK, Unknown motor
Mass
260 kg wet, ~248 kg dry
Launch date (UTC)
2021-02-16 (5 years ago)
Launch vehicle
FALCON 9
Launch site
Air Force Eastern Test Range (AFETR)
Object type
Payload
Rocket body
Debris
Shape & HBR
Box + 1 Pan, 10.1 m
Radar Cross Section
13.562 m², Large (>1 m²)

Expand to show TLE details & history
Last TLE update: 2 months ago

TLE from 2 months ago
0 STARLINK-2095
1 47679U 21012BM  26110.57493346  .08080012  12223-4  12811-2 0  9998
2 47679  53.0022 133.9493 0003483 334.2252  25.8617 16.33031237287845
Epoch: 2026-04-20T13:47Z
TLE epoch observation values (Epoch: 2026-04-20T13:47:54.250Z)
Latitude
-0.00004°
Longitude
78.31013°
Altitude
183.271 km
Speed
7.799 km/s
True Right ascension
08h 55m 47s
True Declination
0° 00' 00"
Sunlit
Object was in full shadow at epoch
Visualization orbit readout
Latitude
Unknown
Longitude
Unknown
Altitude
Unknown
Speed
Unknown
Apparent Right ascension
Unknown
Apparent Declination
Unknown
Sunlit
N/A
Visualization observer readout
Local Sidereal Time
21:37:11
Azimuth
Unknown
Elevation
Unknown
Doppler factor
Unknown
Orbital elements
Apogee altitude
186.986 km
Perigee altitude
182.414 km
Semi-major axis
6,562.837 km
Eccentricity
0.00035
Inclination
53.0022°
RAAN
133.9493°
Arg. of periapsis
334.2252°
True anomaly
25.87912°
Mean anomaly
25.8617°
Eccentric anomaly
25.87041°
Mean motion
4.08231 °/min
Orbital period
88.19 mins
BSTAR
0.0012811
Loading maneuver chart data...
Computing Atmospheric mass density...

Documentation

Showing up to 5 results
|